GFSMA_500_rhum_060.txt.gz
RH
94 97 90 97 98 98 95 86 78 81 69 40 25 15 12 12 9 10 8 7 6 5 6 6 7 7 7 7 7 7 7 8 8 9 9 10 11 12 14 17 22 27 28
96 95 91 99 100 98 98 96 90 84 70 28 17 16 14 12 10 10 9 7 6 7 9 8 7 7 8 10 8 8 9 10 9 12 12 11 11 14 20 23 25 28 33
97 92 98 100 98 100 95 88 90 90 54 19 18 14 13 12 11 11 10 8 8 9 8 9 8 9 12 11 11 14 11 9 10 13 14 18 22 23 34 46 35 30 33
92 89 100 96 99 96 93 94 94 93 39 21 18 15 13 13 18 18 15 14 14 10 13 15 10 9 8 9 9 9 9 10 10 10 11 19 23 26 29 46 52 47 33
84 98 100 100 92 74 60 53 53 29 21 19 16 14 12 13 24 36 30 23 15 18 24 24 10 10 19 20 22 18 13 13 12 12 13 18 22 27 30 38 42 48 46
94 100 100 92 95 89 40 20 20 21 20 18 16 14 13 22 34 39 31 19 16 30 36 25 20 27 32 22 31 21 26 18 18 21 23 24 26 28 27 32 40 45 44
100 98 95 98 100 99 96 40 19 19 18 16 20 44 49 50 51 46 39 34 35 34 26 36 39 48 44 43 60 75 65 57 28 33 42 43 40 41 37 37 39 38 37
95 97 96 91 88 84 57 22 20 17 16 31 42 44 46 54 71 66 58 47 41 36 42 28 26 55 57 52 28 53 72 54 33 56 58 54 66 62 44 43 42 43 41
94 96 90 79 80 80 34 22 20 23 36 40 35 39 45 59 60 68 60 62 54 34 29 40 59 61 59 81 65 54 62 36 43 52 71 80 75 51 49 45 44 42 42
79 85 63 66 52 35 29 30 30 38 39 40 45 52 59 68 60 42 49 44 33 10 15 17 17 29 52 63 47 76 45 40 46 58 74 64 59 50 46 43 45 44 36
43 65 40 30 40 28 26 31 59 70 52 60 62 70 83 76 64 64 20 28 36 42 45 46 51 27 20 29 59 46 43 48 54 58 57 55 49 46 47 47 37 30 26
28 34 38 39 52 42 40 47 77 94 97 88 84 86 86 90 62 39 56 54 32 30 45 66 65 58 45 41 36 40 44 46 48 53 54 54 53 50 43 38 32 28 28
46 31 30 31 38 52 57 90 97 96 97 96 80 48 60 52 16 20 59 68 25 18 18 30 46 31 38 37 38 42 39 32 34 46 52 53 51 48 46 43 39 36 34
62 72 89 87 85 98 98 98 98 100 94 55 37 45 11 10 14 13 22 20 19 17 22 34 39 39 41 43 42 38 32 42 46 45 52 54 51 50 46 41 40 38 32
98 100 99 84 88 96 97 96 97 74 38 22 34 15 11 11 14 18 16 17 20 31 34 38 44 44 43 40 36 36 43 41 44 55 55 53 48 44 40 41 39 28 16
98 55 68 85 89 98 96 87 68 41 24 12 12 11 10 14 15 15 20 29 37 36 26 30 39 43 40 42 44 48 51 60 62 58 55 50 46 42 42 40 27 12 12
97 73 82 99 97 74 55 64 46 31 19 10 11 12 14 15 16 26 32 38 38 37 28 30 32 37 39 44 50 52 56 57 58 55 48 45 44 45 40 22 12 12 17
100 91 70 77 60 60 63 47 36 17 10 12 14 16 17 16 22 35 38 37 41 37 32 33 34 39 42 45 50 54 63 64 53 50 49 48 47 39 20 11 13 19 22
85 87 73 64 57 66 57 39 22 12 14 15 18 17 14 21 31 36 43 47 42 34 38 40 41 45 47 54 59 67 64 58 53 50 52 51 38 16 12 17 21 20 25
66 44 72 79 75 63 36 31 16 16 16 18 17 14 17 26 36 40 44 48 41 45 46 48 50 55 60 60 62 61 56 55 47 48 46 38 17 13 18 20 67 37 24
64 54 76 74 46 35 35 18 16 15 18 18 16 18 26 34 40 48 52 49 50 52 54 58 64 64 60 62 64 62 60 54 48 45 31 14 11 14 20 23 26 31 21
51 38 49 43 40 35 19 15 16 19 19 18 19 28 37 43 48 58 58 55 56 56 62 65 65 65 67 67 65 62 58 52 37 22 10 9 16 19 17 20 22 21 24
55 46 34 36 31 17 16 16 20 20 19 24 46 55 57 57 62 66 63 66 68 72 72 74 75 74 67 67 66 63 58 42 19 8 9 12 19 18 19 20 19 32 51
32 36 33 24 17 18 17 19 22 23 24 37 61 74 72 70 71 71 72 79 86 94 96 97 88 81 78 76 74 67 47 21 9 8 14 19 20 15 36 45 48 88 77
30 31 29 17 17 17 18 23 24 25 46 63 70 77 79 81 81 80 89 95 98 95 96 98 94 90 82 79 74 56 28 10 8 12 18 22 16 27 81 80 85 98 69
27 29 18 16 17 18 23 26 33 59 75 87 89 93 88 84 81 89 99 98 95 97 94 97 100 92 84 78 63 34 10 8 12 15 22 20 16 80 96 97 99 95 66

GFSMA_500_rhum_063.txt.gz
RH
99 97 98 96 100 72 88 96 98 99 92 76 66 36 18 14 13 11 9 9 8 6 5 6 6 7 6 6 6 6 5 5 5 6 6 6 7 8 8 9 9 10 13
96 95 98 96 94 84 99 96 96 99 92 88 61 34 18 15 13 11 11 10 8 6 7 7 7 8 7 6 6 6 6 6 7 9 10 11 11 10 10 10 10 11 13
95 99 98 96 98 100 100 95 97 97 92 72 32 23 18 15 14 11 11 12 10 8 7 7 8 11 9 7 7 7 8 9 11 12 12 13 15 16 16 17 18 18 17
97 98 100 98 96 100 100 100 97 97 92 82 40 22 18 15 13 12 11 13 15 13 12 8 8 12 14 14 22 20 19 18 16 17 21 24 29 38 22 22 20 21 24
100 98 100 89 95 97 100 99 96 95 99 70 22 20 16 14 13 13 18 24 23 21 19 11 12 18 21 36 18 14 14 14 16 17 26 22 34 30 24 28 30 29 28
98 100 92 80 93 100 100 94 94 95 84 33 21 17 15 14 15 14 22 29 35 35 35 26 28 35 40 41 23 39 38 30 42 41 34 32 38 33 31 29 26 28 29
94 96 87 86 100 92 77 60 41 35 24 21 18 16 15 15 33 30 30 39 37 45 54 56 54 42 33 42 54 28 19 16 19 24 29 27 29 30 26 24 24 24 25
100 99 96 99 96 98 96 71 25 23 22 21 20 18 25 33 36 39 45 47 51 58 65 64 59 24 31 47 30 38 42 22 24 29 32 35 32 25 18 18 17 17 18
93 93 98 98 97 96 98 97 44 22 21 19 20 27 37 39 43 48 54 57 60 44 24 15 25 33 42 55 53 51 40 25 31 34 32 32 24 18 18 19 19 19 21
85 95 92 96 96 96 82 83 34 20 19 20 25 37 39 44 48 58 71 64 55 45 16 13 10 10 9 9 14 20 26 27 32 27 25 22 21 21 22 24 24 26 25
90 100 87 78 81 78 70 60 38 31 23 28 58 63 65 61 57 62 74 61 36 25 17 10 12 11 10 16 23 24 22 22 23 26 25 24 24 25 27 29 29 30 32
46 73 72 58 41 51 40 31 29 34 59 76 99 99 88 80 84 66 80 28 14 9 13 15 12 12 17 26 22 23 23 23 24 25 25 26 28 32 35 37 39 41 41
34 50 46 47 44 41 42 53 61 77 92 99 98 95 88 77 66 85 16 9 9 13 12 12 16 23 30 28 26 26 27 26 27 28 31 33 38 43 47 51 50 46 44
68 52 35 30 33 36 36 53 91 97 97 97 96 76 35 25 26 16 10 10 12 13 11 15 28 37 34 30 29 30 31 33 34 37 40 48 50 51 53 52 49 44 40
88 90 90 82 83 87 87 98 96 97 98 97 94 46 28 12 10 10 11 13 15 12 14 25 35 39 38 31 34 37 38 40 44 49 56 55 55 54 54 53 49 45 43
93 98 93 89 89 90 86 98 98 97 93 87 61 33 21 10 10 12 14 15 12 15 20 28 36 43 42 39 43 42 42 48 56 62 58 60 61 60 59 56 52 46 45
86 96 98 83 52 93 97 98 96 96 62 54 39 27 12 11 12 12 16 14 16 22 28 35 40 47 45 48 48 45 50 61 63 61 66 69 65 64 63 59 51 43 38
96 99 98 97 96 90 82 70 85 59 59 48 33 21 12 12 14 17 15 14 18 29 36 42 47 53 51 52 53 57 62 66 70 75 74 71 70 68 65 56 41 27 18
99 96 97 97 96 66 97 86 63 67 51 30 25 16 13 14 16 17 15 21 34 46 53 56 60 59 57 62 67 75 78 87 92 87 82 81 75 72 58 37 20 12 14
95 86 62 65 57 51 82 87 73 45 25 30 19 15 16 18 20 17 26 46 58 63 64 62 62 63 71 78 88 89 82 92 86 93 94 84 78 65 46 18 10 11 15
63 54 72 65 61 70 80 57 47 40 34 21 16 16 20 20 21 23 41 62 70 69 70 72 81 87 91 97 100 100 96 84 82 97 88 78 70 54 27 9 10 14 18
56 56 58 73 73 83 61 41 38 33 20 17 17 18 21 22 27 45 65 80 83 80 81 79 92 95 100 100 100 100 94 83 80 82 72 60 65 50 15 9 13 16 25
62 60 78 97 91 64 39 33 30 19 16 17 16 19 24 30 53 80 92 92 88 86 77 69 68 86 94 100 98 88 88 86 76 78 76 63 55 23 9 13 19 23 22
44 66 84 85 54 41 32 34 21 17 18 18 19 26 31 40 76 97 99 93 100 91 82 70 68 84 92 96 94 90 87 81 76 78 78 66 24 7 11 18 26 25 20
89 79 60 34 17 29 34 35 22 18 18 19 21 30 45 84 100 100 100 100 98 91 79 78 88 95 99 100 100 94 98 92 81 73 67 28 8 9 13 24 28 24 47
61 42 27 16 23 31 34 33 20 18 19 23 33 45 66 99 97 99 100 100 100 92 88 94 98 100 100 100 100 100 100 95 85 68 28 7 8 10 15 28 26 60 99

GFSMA_500_rhum_069.txt.gz
RH
96 98 94 90 95 77 78 92 92 93 98 96 97 96 99 83 61 71 32 17 12 11 10 10 8 6 5 6 6 6 6 6 5 6 6 6 7 7 5 6 8 9 11
97 98 99 96 94 87 90 98 97 93 97 95 96 98 100 80 92 50 21 15 13 11 11 11 9 8 6 6 6 6 7 7 6 10 12 11 13 7 7 9 11 12 10
96 97 94 98 100 100 98 100 100 98 98 95 92 96 98 95 40 52 18 15 13 11 10 9 10 10 9 8 9 8 8 9 14 13 15 19 16 21 8 13 14 10 11
97 94 93 98 99 94 97 96 97 98 94 90 94 99 100 88 77 24 19 15 13 17 12 12 25 8 10 11 10 13 22 25 29 25 23 20 27 11 11 14 12 13 12
96 97 96 92 93 96 96 95 92 96 96 94 96 95 98 75 80 24 20 38 28 14 25 14 9 9 12 16 20 25 34 47 44 26 22 20 8 10 13 14 13 15 12
92 92 92 98 97 97 95 89 89 94 99 98 98 99 97 92 50 60 48 18 28 14 15 20 26 27 28 30 34 36 27 31 31 24 12 9 10 14 17 14 16 16 18
92 94 94 99 98 95 95 96 95 99 97 97 100 99 86 47 74 41 20 24 16 16 25 31 35 43 46 43 42 35 17 22 13 13 11 10 13 18 16 16 20 19 24
95 96 98 99 98 96 97 96 97 98 98 99 100 98 95 91 66 62 30 17 18 28 38 44 49 55 60 59 58 52 34 26 19 9 10 13 21 22 18 18 24 24 30
98 94 99 96 94 96 97 97 98 98 98 98 100 99 97 62 29 23 22 24 30 39 52 60 61 63 75 67 52 18 18 21 11 10 10 14 22 25 22 23 27 30 33
97 95 98 96 96 95 96 98 99 100 96 95 97 96 69 39 27 26 28 30 40 64 72 74 63 65 88 40 22 16 14 12 11 12 18 27 27 30 34 31 33 38 41
97 96 97 96 98 96 96 96 91 86 72 65 45 36 30 24 26 31 44 52 64 86 79 83 78 95 70 13 11 15 13 12 12 20 28 31 34 37 42 40 44 44 51
93 94 96 99 99 96 94 92 86 82 86 80 69 70 32 25 28 31 34 57 82 88 74 64 43 90 25 12 13 15 13 13 15 24 32 36 37 46 48 48 46 44 49
52 64 63 74 81 92 89 89 91 89 92 94 83 71 74 76 72 92 97 96 92 82 50 99 28 51 13 14 17 16 14 14 21 35 41 41 45 48 54 57 62 70 77
35 28 35 65 91 93 94 82 71 71 71 71 62 41 47 80 98 97 91 100 100 90 80 42 16 17 16 18 18 15 14 24 40 47 46 50 54 58 58 59 64 64 67
56 60 52 41 38 42 45 46 46 44 38 41 45 43 74 99 97 96 100 100 98 94 52 19 16 16 20 22 18 16 22 33 52 57 62 67 65 59 56 62 66 71 79
44 41 65 77 74 63 59 57 47 38 38 48 51 74 95 98 100 97 94 98 95 53 35 23 16 17 20 20 18 21 25 33 52 73 71 68 68 69 68 67 66 67 64
90 85 86 55 55 67 81 93 95 88 84 79 91 78 93 99 98 96 96 97 96 81 28 19 16 16 21 21 22 23 29 51 74 77 76 77 83 83 82 81 75 76 81
98 100 100 98 79 52 71 99 100 98 98 97 100 98 98 98 99 98 96 85 57 29 23 18 17 20 24 21 29 43 73 77 73 79 85 94 100 95 92 90 86 87 93
72 75 89 98 98 98 100 98 98 95 98 98 97 98 98 98 98 98 93 74 38 29 22 17 17 19 24 33 41 52 67 72 82 99 100 100 100 95 91 90 87 93 98
71 59 59 66 100 97 99 82 86 89 99 99 98 100 98 95 95 80 53 44 32 26 20 18 20 22 27 30 35 48 70 80 97 100 100 99 95 96 96 89 95 97 98
64 76 62 53 76 94 73 83 96 98 97 95 97 96 96 98 91 45 31 30 30 21 18 18 20 24 33 39 42 54 67 88 100 100 100 100 100 99 99 99 100 100 95
50 77 88 76 72 66 92 98 97 97 92 96 96 88 94 88 81 58 36 33 32 23 21 22 23 28 37 42 48 63 83 99 97 97 97 100 99 91 84 88 92 88 82
44 58 75 94 99 96 90 96 96 94 78 80 67 63 78 74 53 21 32 39 39 31 22 23 26 32 54 68 79 96 100 97 92 99 94 84 90 77 79 83 84 79 70
32 46 56 64 80 84 96 99 89 85 74 73 72 77 68 43 20 24 30 34 35 28 30 36 42 51 73 91 96 100 94 93 96 100 100 83 80 75 75 82 85 77 68
43 32 26 28 40 60 62 57 58 65 53 37 65 45 93 32 23 30 33 33 38 41 44 54 84 99 98 100 99 95 96 94 97 100 100 80 77 76 78 80 81 75 67
32 24 18 18 19 30 37 35 27 20 20 20 32 70 79 26 31 31 31 42 58 59 68 100 100 99 99 99 100 97 95 98 97 91 96 79 83 88 71 78 80 70 51

GFSMA_500_rhum_072.txt.gz
RH
92 87 97 86 91 88 85 77 72 100 90 97 92 87 87 96 85 79 68 50 30 30 14 10 10 9 7 6 5 6 6 6 6 6 6 7 10 11 12 14 12 9 6
97 93 96 94 98 91 80 86 74 95 99 94 90 88 87 93 90 92 50 41 64 18 12 11 9 10 8 8 13 6 6 7 7 7 10 13 15 17 22 17 22 8 10
96 97 96 96 94 88 88 96 83 95 99 97 95 89 87 90 97 50 49 71 22 19 13 11 10 9 10 11 10 9 9 9 11 16 19 24 28 27 22 24 8 8 14
97 97 97 94 97 100 96 92 96 97 97 94 88 91 88 93 94 86 66 37 27 16 14 13 17 14 24 21 9 9 11 14 22 30 42 47 41 23 22 8 9 14 16
94 95 96 96 96 97 95 94 96 99 98 89 90 92 96 97 95 87 36 62 20 17 23 23 17 30 28 11 12 17 25 32 42 41 31 38 27 17 9 8 10 16 16
97 97 96 96 95 94 97 95 97 94 96 93 96 98 95 97 99 84 55 50 29 38 39 24 24 15 28 35 36 42 47 47 43 28 20 18 12 10 9 9 14 18 19
96 97 97 94 96 97 97 90 92 95 96 95 97 96 95 99 96 72 78 29 50 49 24 23 18 25 35 39 41 42 56 61 60 56 40 22 18 9 9 12 17 20 22
87 93 95 97 96 95 98 99 96 95 96 96 96 90 94 98 96 68 63 65 68 26 27 21 31 36 46 56 57 57 64 71 48 30 13 20 10 10 11 18 23 24 26
81 80 95 97 97 99 100 100 96 94 96 97 97 99 94 98 89 65 56 74 58 47 24 29 34 51 64 64 58 54 67 74 32 15 13 12 10 11 18 28 26 25 28
96 92 97 97 96 91 96 98 97 95 96 98 97 92 92 87 98 99 90 51 30 24 23 23 33 54 72 65 59 61 74 48 11 12 14 12 11 10 10 20 30 33 35
93 90 97 96 98 94 99 97 96 96 94 96 98 99 86 89 96 90 51 50 28 21 20 41 99 92 92 74 62 42 99 34 12 14 14 12 12 12 15 26 33 39 45
92 96 97 96 96 97 98 98 99 90 90 98 98 97 86 79 51 41 30 27 40 44 50 72 75 95 97 72 91 56 47 12 12 14 15 13 13 19 26 44 53 57 54
94 98 96 96 98 98 88 93 94 99 89 86 86 74 72 68 64 47 29 35 63 94 98 100 99 98 88 77 73 46 17 23 15 16 16 15 17 21 26 43 56 59 58
31 39 50 62 54 57 67 70 72 79 67 76 81 80 91 87 74 70 63 79 96 99 93 92 91 100 97 91 57 55 41 15 16 18 17 17 17 21 52 56 60 68 71
49 55 53 46 42 42 53 60 76 83 87 88 80 84 79 78 56 42 52 95 99 92 94 98 97 97 69 70 60 19 16 17 18 19 18 20 31 57 65 68 71 75 78
42 36 34 32 47 56 50 46 51 56 50 56 51 45 38 41 40 43 83 89 90 83 82 95 97 96 79 44 24 18 18 18 21 21 19 26 36 50 62 72 76 79 86
81 88 73 80 76 68 66 68 68 64 69 65 57 52 50 56 76 84 93 97 97 98 97 100 90 75 45 28 23 18 16 20 20 18 20 25 30 34 60 74 80 86 87
70 80 83 80 74 87 96 90 68 59 74 95 94 96 100 97 96 97 98 99 99 99 98 97 86 55 37 27 22 18 16 16 18 18 26 28 33 44 77 83 85 90 95
80 46 55 65 65 80 76 88 100 98 91 87 92 99 100 98 98 99 98 98 99 99 97 85 36 28 30 25 19 16 17 18 21 25 28 34 49 80 94 96 98 95 91
44 41 34 43 58 53 55 76 86 97 99 99 90 94 96 98 98 98 95 97 97 96 89 56 33 34 33 28 23 19 19 21 26 31 36 66 84 95 97 98 93 93 95
32 36 29 24 55 69 57 65 78 89 89 96 100 97 99 100 99 98 99 93 81 84 77 59 27 23 29 33 31 23 22 25 30 44 83 96 91 99 99 94 100 100 99
36 30 29 19 28 67 82 67 63 62 91 86 88 92 92 76 79 73 77 69 74 80 72 28 18 21 32 36 32 27 30 37 50 94 88 96 100 100 100 100 100 100 100
35 28 16 16 36 47 64 82 90 93 95 96 93 94 87 79 70 69 70 76 73 56 34 20 20 25 33 30 28 35 42 65 91 93 89 90 100 99 93 100 100 100 96
14 14 18 22 29 34 46 47 61 69 79 77 83 81 83 80 78 62 54 56 64 88 97 74 26 29 30 31 38 49 82 95 95 100 100 93 99 89 91 97 100 96 88
13 14 19 39 52 46 34 36 41 56 61 53 47 42 38 36 30 26 34 61 100 100 95 33 26 32 41 55 84 96 97 100 100 100 100 96 96 89 89 93 97 95 86
23 17 18 33 43 34 30 23 23 29 35 37 37 30 27 23 20 24 30 35 40 70 45 28 42 59 76 95 98 97 100 100 100 99 100 97 100 98 80 88 96 97 92